Location: Unspecified
(0.0000°N, 0.0000°E)
Time: 16:09:53
(UTC+00:00)

SAUDISAT 4 - Pass Details

Date: 06 June 2023
Orbit: 606 x 675 km, 97.6° (Epoch: 23 September)

Event Time Altitude Azimuth Distance (km) Brightness Sun altitude
Rises 05:12:55 0° 161° (SSE) 2,955 ? -10.5°
Reaches altitude 10° 05:15:11 10° 157° (SSE) 2,031 ? -10.0°
Maximum altitude 05:19:31 57° 79° (ENE) 745 ? -9.0°
Drops below altitude 10° 05:23:45 10° 0° (N) 1,981 ? -8.0°
Sets 05:25:56 0° 356° (N) 2,875 ? -7.5°
